This is the latest recevied weather packets stored in our database for station/object KC3ROB-13. If no packets are shown the sender has not sent any weather packets the latest 10 day(s).
| Time | Temp. | Humidity | Pressure | Rain* | Wind** | Luminosity | Snow |
|---|---|---|---|---|---|---|---|
| 1777999212 | 25.56° C | 100% | 1005.4 hPa | 0 mm | - | - | - |
| 1777998612 | 25° C | 100% | 1005.4 hPa | 0 mm | - | - | - |
| 1777998012 | 25° C | 100% | 1005.4 hPa | 0 mm | - | - | - |
| 1777997413 | 25° C | 100% | 1005.4 hPa | 0 mm | - | - | - |
| 1777996812 | 24.44° C | 100% | 1005.4 hPa | 0 mm | - | - | - |
| 1777996212 | 23.89° C | 100% | 1005.8 hPa | 0 mm | - | - | - |
| 1777995612 | 23.33° C | 100% | 1005.8 hPa | 0 mm | - | - | - |
| 1777995012 | 23.33° C | 100% | 1006.1 hPa | 0 mm | - | - | - |
| 1777994431 | 23.33° C | 100% | 1006.1 hPa | 0 mm | - | - | - |
| 1777993812 | 22.78° C | 100% | 1006.1 hPa | 0 mm | - | - | - |
| 1777993212 | 22.22° C | 100% | 1006.1 hPa | 0 mm | - | - | - |
| 1777992612 | 22.22° C | 100% | 1005.8 hPa | 0 mm | - | - | - |
| 1777992012 | 21.67° C | 100% | 1006.1 hPa | 0 mm | - | - | - |
| 1777991412 | 21.67° C | 100% | 1006.1 hPa | 0 mm | - | - | - |
| 1777990812 | 21.67° C | 100% | 1006.1 hPa | 0 mm | - | - | - |
| 1777990212 | 21.67° C | 100% | 1006.1 hPa | 0 mm | - | - | - |
| 1777989612 | 21.11° C | 100% | 1006.1 hPa | 0 mm | - | - | - |
| 1777989014 | 21.11° C | 100% | 1006.1 hPa | 0 mm | - | - | - |
| 1777988412 | 21.67° C | 100% | 1006.1 hPa | 0 mm | - | - | - |
| 1777987832 | 21.11° C | 100% | 1006.4 hPa | 0 mm | - | - | - |
| 1777987212 | 20.56° C | 100% | 1006.4 hPa | 0 mm | - | - | - |
| 1777986612 | 20° C | 100% | 1006.4 hPa | 0 mm | - | - | - |
| 1777986012 | 19.44° C | 100% | 1006.1 hPa | 0 mm | - | - | - |
| 1777985412 | 19.44° C | 100% | 1006.1 hPa | 0 mm | - | - | - |
| 1777984812 | 18.89° C | 100% | 1006.1 hPa | 0 mm | - | - | - |
* Rain latest hour (hover to see other rain measurements)
** Current wind speed in m/s (hover to see current wind gust speed)